Time,TemperatureF,DewpointF,PressureIn,WindDirection,WindDirectionDegrees,WindSpeedMPH,WindSpeedGustMPH,Humidity,HourlyPrecipIn,Conditions,Clouds,dailyrainin,SoftwareType,DateUTC
2013-02-05 00:09:00,8.2,7.6,29.80,East,90,2.7,-999.0,97,-99.99,,,0.00,Acu-Link.com,2013-02-05 05:09:00,
2013-02-05 00:24:00,8.1,7.6,29.80,East,90,2.2,-999.0,98,-99.99,,,0.00,Acu-Link.com,2013-02-05 05:24:00,
2013-02-05 00:39:00,8.1,7.6,29.80,East,90,3.8,-999.0,98,-99.99,,,0.00,Acu-Link.com,2013-02-05 05:39:00,
2013-02-05 00:55:00,8.1,7.6,29.80,East,90,5.8,-999.0,98,-99.99,,,0.00,Acu-Link.com,2013-02-05 05:55:00,
2013-02-05 01:11:00,7.9,7.4,29.80,East,90,3.1,-999.0,98,-99.99,,,0.00,Acu-Link.com,2013-02-05 06:11:00,
2013-02-05 01:26:00,8.8,8.3,29.80,East,90,1.6,-999.0,98,-99.99,,,0.00,Acu-Link.com,2013-02-05 06:26:00,
2013-02-05 01:41:00,7.0,6.5,29.81,East,90,1.1,-999.0,98,-99.99,,,0.00,Acu-Link.com,2013-02-05 06:41:00,
2013-02-05 01:56:00,6.4,6.0,29.81,East,90,2.7,-999.0,98,-99.99,,,0.00,Acu-Link.com,2013-02-05 06:56:00,
2013-02-05 02:12:00,6.1,5.6,29.81,East,90,2.2,-999.0,98,-99.99,,,0.00,Acu-Link.com,2013-02-05 07:12:00,
2013-02-05 02:27:00,5.9,5.5,29.81,East,90,0.0,-999.0,98,-99.99,,,0.00,Acu-Link.com,2013-02-05 07:27:00,
2013-02-05 02:42:00,5.4,4.9,29.81,East,90,2.7,-999.0,98,-99.99,,,0.00,Acu-Link.com,2013-02-05 07:42:00,
2013-02-05 02:57:00,5.2,4.7,29.81,East,90,2.7,-999.0,98,-99.99,,,0.00,Acu-Link.com,2013-02-05 07:57:00,
2013-02-05 03:13:00,5.0,4.6,29.81,East,90,2.2,-999.0,98,-99.99,,,0.00,Acu-Link.com,2013-02-05 08:13:00,
2013-02-05 03:28:00,4.6,4.2,29.82,East,90,2.2,-999.0,98,-99.99,,,0.00,Acu-Link.com,2013-02-05 08:28:00,
2013-02-05 03:43:00,4.8,4.4,29.82,East,90,0.0,-999.0,98,-99.99,,,0.00,Acu-Link.com,2013-02-05 08:43:00,
2013-02-05 03:59:00,4.8,4.4,29.82,East,90,0.0,-999.0,98,-99.99,,,0.00,Acu-Link.com,2013-02-05 08:59:00,
2013-02-05 04:14:00,4.6,4.2,29.82,East,90,1.6,-999.0,98,-99.99,,,0.00,Acu-Link.com,2013-02-05 09:14:00,
2013-02-05 04:29:00,4.3,3.8,29.82,East,90,0.0,-999.0,98,-99.99,,,0.00,Acu-Link.com,2013-02-05 09:29:00,
2013-02-05 04:45:00,3.9,3.5,29.83,East,90,0.0,-999.0,98,-99.99,,,0.00,Acu-Link.com,2013-02-05 09:45:00,
2013-02-05 05:00:00,3.6,3.1,29.84,East,90,0.0,-999.0,98,-99.99,,,0.00,Acu-Link.com,2013-02-05 10:00:00,
2013-02-05 05:15:00,3.2,2.8,29.84,East,90,1.6,-999.0,98,-99.99,,,0.00,Acu-Link.com,2013-02-05 10:15:00,
2013-02-05 05:30:00,2.8,2.4,29.84,East,90,2.2,-999.0,98,-99.99,,,0.00,Acu-Link.com,2013-02-05 10:30:00,
2013-02-05 05:46:00,2.7,2.2,29.84,East,90,1.6,-999.0,98,-99.99,,,0.00,Acu-Link.com,2013-02-05 10:46:00,
2013-02-05 06:01:00,2.3,1.9,29.84,East,90,1.6,-999.0,98,-99.99,,,0.00,Acu-Link.com,2013-02-05 11:01:00,
2013-02-05 06:16:00,2.1,1.7,29.85,East,90,0.0,-999.0,98,-99.99,,,0.00,Acu-Link.com,2013-02-05 11:16:00,
2013-02-05 06:32:00,2.1,1.7,29.85,East,90,2.7,-999.0,98,-99.99,,,0.00,Acu-Link.com,2013-02-05 11:32:00,
2013-02-05 06:47:00,2.1,1.7,29.86,East,90,2.2,-999.0,98,-99.99,,,0.00,Acu-Link.com,2013-02-05 11:47:00,
2013-02-05 07:02:00,2.1,1.7,29.86,East,90,0.0,-999.0,98,-99.99,,,0.00,Acu-Link.com,2013-02-05 12:02:00,
2013-02-05 07:18:00,1.8,1.3,29.87,East,90,0.0,-999.0,98,-99.99,,,0.00,Acu-Link.com,2013-02-05 12:18:00,
2013-02-05 07:33:00,1.9,1.5,29.87,East,90,0.0,-999.0,98,-99.99,,,0.00,Acu-Link.com,2013-02-05 12:33:00,
2013-02-05 07:48:00,2.1,1.7,29.88,East,90,2.2,-999.0,98,-99.99,,,0.00,Acu-Link.com,2013-02-05 12:48:00,
2013-02-05 08:03:00,2.5,2.0,29.90,East,90,2.2,-999.0,98,-99.99,,,0.00,Acu-Link.com,2013-02-05 13:03:00,
2013-02-05 08:19:00,3.0,2.6,29.89,East,90,0.0,-999.0,98,-99.99,,,0.00,Acu-Link.com,2013-02-05 13:19:00,
2013-02-05 08:34:00,4.5,4.0,29.90,East,90,0.0,-999.0,98,-99.99,,,0.00,Acu-Link.com,2013-02-05 13:34:00,
2013-02-05 08:49:00,7.7,7.3,29.90,East,90,0.0,-999.0,98,-99.99,,,0.00,Acu-Link.com,2013-02-05 13:49:00,
2013-02-05 09:05:00,10.0,9.6,29.89,East,90,0.0,-999.0,98,-99.99,,,0.00,Acu-Link.com,2013-02-05 14:05:00,
2013-02-05 09:20:00,13.3,11.6,29.89,East,90,0.0,-999.0,93,-99.99,,,0.00,Acu-Link.com,2013-02-05 14:20:00,
2013-02-05 09:35:00,17.1,12.5,29.89,East,90,0.0,-999.0,82,-99.99,,,0.00,Acu-Link.com,2013-02-05 14:35:00,
2013-02-05 09:50:00,19.4,11.9,29.89,East,90,2.2,-999.0,72,-99.99,,,0.00,Acu-Link.com,2013-02-05 14:50:00,
2013-02-05 10:05:00,20.7,9.7,29.89,East,90,1.6,-999.0,62,-99.99,,,0.00,Acu-Link.com,2013-02-05 15:05:00,
2013-02-05 10:21:00,21.2,10.6,29.89,West,270,3.1,-999.0,63,-99.99,,,0.00,Acu-Link.com,2013-02-05 15:21:00,
2013-02-05 10:36:00,23.7,11.5,29.88,East,90,10.3,-999.0,59,-99.99,,,0.00,Acu-Link.com,2013-02-05 15:36:00,
2013-02-05 10:51:00,23.2,11.0,29.88,ENE,67,4.3,-999.0,59,-99.99,,,0.00,Acu-Link.com,2013-02-05 15:51:00,
2013-02-05 11:07:00,23.2,11.0,29.88,NNE,22,6.7,-999.0,59,-99.99,,,0.00,Acu-Link.com,2013-02-05 16:07:00,
2013-02-05 11:22:00,23.4,10.8,29.87,NW,315,1.6,-999.0,58,-99.99,,,0.00,Acu-Link.com,2013-02-05 16:22:00,
2013-02-05 11:37:00,25.7,11.4,29.87,ESE,112,5.1,-999.0,54,-99.99,,,0.00,Acu-Link.com,2013-02-05 16:37:00,
2013-02-05 11:53:00,27.0,12.1,29.85,NNE,22,8.9,-999.0,53,-99.99,,,0.00,Acu-Link.com,2013-02-05 16:53:00,
2013-02-05 12:08:00,27.7,12.4,29.85,ENE,67,4.3,-999.0,52,-99.99,,,0.00,Acu-Link.com,2013-02-05 17:08:00,
2013-02-05 12:23:00,28.0,12.7,29.84,West,270,2.7,-999.0,52,-99.99,,,0.00,Acu-Link.com,2013-02-05 17:23:00,
2013-02-05 12:38:00,28.8,12.9,29.83,North,0,6.3,-999.0,51,-99.99,,,0.00,Acu-Link.com,2013-02-05 17:38:00,
2013-02-05 12:54:00,29.3,13.4,29.82,NE,45,4.3,-999.0,51,-99.99,,,0.00,Acu-Link.com,2013-02-05 17:54:00,
2013-02-05 13:09:00,30.0,13.7,29.82,SSE,157,2.2,-999.0,50,-99.99,,,0.00,Acu-Link.com,2013-02-05 18:09:00,
2013-02-05 13:24:00,29.7,13.8,29.82,ESE,112,6.7,-999.0,51,-99.99,,,0.00,Acu-Link.com,2013-02-05 18:24:00,
2013-02-05 13:39:00,30.7,14.3,29.81,NNW,337,0.0,-999.0,50,-99.99,,,0.00,Acu-Link.com,2013-02-05 18:39:00,
2013-02-05 13:56:00,28.6,13.2,29.81,South,180,4.7,-999.0,52,-99.99,,,0.00,Acu-Link.com,2013-02-05 18:56:00,
2013-02-05 14:11:00,28.2,13.3,29.81,SSW,202,6.7,-999.0,53,-99.99,,,0.00,Acu-Link.com,2013-02-05 19:11:00,
2013-02-05 14:26:00,27.9,13.0,29.80,South,180,7.8,-999.0,53,-99.99,,,0.00,Acu-Link.com,2013-02-05 19:26:00,
2013-02-05 14:41:00,27.1,12.7,29.80,SSW,202,6.3,-999.0,54,-99.99,,,0.00,Acu-Link.com,2013-02-05 19:41:00,
2013-02-05 14:57:00,26.8,12.8,29.79,SSW,202,5.8,-999.0,55,-99.99,,,0.00,Acu-Link.com,2013-02-05 19:57:00,
2013-02-05 15:12:00,27.0,13.4,29.80,SSW,202,1.6,-999.0,56,-99.99,,,0.00,Acu-Link.com,2013-02-05 20:12:00,
2013-02-05 15:28:00,26.4,13.3,29.80,SSW,202,4.7,-999.0,57,-99.99,,,0.00,Acu-Link.com,2013-02-05 20:28:00,
2013-02-05 15:43:00,26.6,13.4,29.80,South,180,1.6,-999.0,57,-99.99,,,0.00,Acu-Link.com,2013-02-05 20:43:00,
2013-02-05 15:59:00,26.6,13.8,29.79,SSW,202,2.7,-999.0,58,-99.99,,,0.00,Acu-Link.com,2013-02-05 20:59:00,
2013-02-05 16:14:00,26.8,14.0,29.79,SSW,202,0.0,-999.0,58,-99.99,,,0.00,Acu-Link.com,2013-02-05 21:14:00,
2013-02-05 16:29:00,28.6,16.1,29.79,SSW,202,2.2,-999.0,59,-99.99,,,0.00,Acu-Link.com,2013-02-05 21:29:00,
2013-02-05 16:44:00,25.9,13.9,29.79,SSW,202,0.0,-999.0,60,-99.99,,,0.00,Acu-Link.com,2013-02-05 21:44:00,
2013-02-05 17:00:00,25.0,14.9,29.79,SSW,202,0.0,-999.0,65,-99.99,,,0.00,Acu-Link.com,2013-02-05 22:00:00,
2013-02-05 17:15:00,23.9,14.9,29.79,SSW,202,2.2,-999.0,68,-99.99,,,0.00,Acu-Link.com,2013-02-05 22:15:00,
2013-02-05 17:30:00,23.2,15.5,29.79,SSW,202,0.0,-999.0,72,-99.99,,,0.00,Acu-Link.com,2013-02-05 22:30:00,
2013-02-05 17:46:00,22.5,15.4,29.79,SSW,202,0.0,-999.0,74,-99.99,,,0.00,Acu-Link.com,2013-02-05 22:46:00,
2013-02-05 18:01:00,21.9,14.9,29.79,SSW,202,0.0,-999.0,74,-99.99,,,0.00,Acu-Link.com,2013-02-05 23:01:00,
2013-02-05 18:16:00,21.4,15.0,29.80,SSW,202,1.6,-999.0,76,-99.99,,,0.00,Acu-Link.com,2013-02-05 23:16:00,
2013-02-05 18:32:00,20.8,15.1,29.80,SSW,202,1.6,-999.0,78,-99.99,,,0.00,Acu-Link.com,2013-02-05 23:32:00,
2013-02-05 18:47:00,20.5,15.0,29.80,SSW,202,2.2,-999.0,79,-99.99,,,0.00,Acu-Link.com,2013-02-05 23:47:00,
2013-02-05 19:02:00,20.3,15.7,29.80,SSW,202,1.6,-999.0,82,-99.99,,,0.00,Acu-Link.com,2013-02-06 00:02:00,
2013-02-05 19:17:00,20.3,15.7,29.80,SSW,202,0.0,-999.0,82,-99.99,,,0.00,Acu-Link.com,2013-02-06 00:17:00,
2013-02-05 19:33:00,20.3,15.7,29.80,SSW,202,0.0,-999.0,82,-99.99,,,0.00,Acu-Link.com,2013-02-06 00:33:00,
2013-02-05 19:48:00,20.1,15.8,29.81,SSW,202,0.0,-999.0,83,-99.99,,,0.00,Acu-Link.com,2013-02-06 00:48:00,
2013-02-05 20:03:00,19.9,16.4,29.81,SSW,202,0.0,-999.0,86,-99.99,,,0.00,Acu-Link.com,2013-02-06 01:03:00,
2013-02-05 20:19:00,19.8,16.5,29.81,SSW,202,0.0,-999.0,87,-99.99,,,0.00,Acu-Link.com,2013-02-06 01:19:00,
2013-02-05 20:34:00,19.8,16.8,29.81,SSW,202,0.0,-999.0,88,-99.99,,,0.00,Acu-Link.com,2013-02-06 01:34:00,
2013-02-05 20:49:00,19.8,17.1,29.81,SSW,202,0.0,-999.0,89,-99.99,,,0.00,Acu-Link.com,2013-02-06 01:49:00,
2013-02-05 21:05:00,19.6,17.1,29.81,SSW,202,0.0,-999.0,90,-99.99,,,0.00,Acu-Link.com,2013-02-06 02:05:00,
2013-02-05 21:20:00,19.6,17.6,29.81,SSW,202,0.0,-999.0,92,-99.99,,,0.00,Acu-Link.com,2013-02-06 02:20:00,
2013-02-05 21:35:00,19.6,17.6,29.80,SSW,202,0.0,-999.0,92,-99.99,,,0.00,Acu-Link.com,2013-02-06 02:35:00,
2013-02-05 21:50:00,19.6,17.6,29.80,SSW,202,0.0,-999.0,92,-99.99,,,0.00,Acu-Link.com,2013-02-06 02:50:00,
2013-02-05 22:06:00,19.6,18.1,29.80,SSW,202,0.0,-999.0,94,-99.99,,,0.00,Acu-Link.com,2013-02-06 03:06:00,
2013-02-05 22:21:00,19.6,18.4,29.80,SSW,202,0.0,-999.0,95,-99.99,,,0.00,Acu-Link.com,2013-02-06 03:21:00,
2013-02-05 22:36:00,19.6,18.9,29.80,SSW,202,0.0,-999.0,97,-99.99,,,0.00,Acu-Link.com,2013-02-06 03:36:00,
2013-02-05 22:52:00,19.8,19.0,29.80,SSW,202,0.0,-999.0,97,-99.99,,,0.00,Acu-Link.com,2013-02-06 03:52:00,
2013-02-05 23:07:00,19.8,19.0,29.80,SSW,202,0.0,-999.0,97,-99.99,,,0.00,Acu-Link.com,2013-02-06 04:07:00,
2013-02-05 23:22:00,19.8,19.3,29.80,SSW,202,0.0,-999.0,98,-99.99,,,0.00,Acu-Link.com,2013-02-06 04:22:00,
2013-02-05 23:37:00,19.8,19.3,29.80,SSW,202,0.0,-999.0,98,-99.99,,,0.00,Acu-Link.com,2013-02-06 04:37:00,
2013-02-05 23:53:00,19.9,19.5,29.80,SSW,202,0.0,-999.0,98,-99.99,,,0.00,Acu-Link.com,2013-02-06 04:53:00,